1200100251,2006,01,01,00,0.023
1200100251,2006,01,01,01,0.023
1200100251,2006,01,01,02,0.012
1200100251,2006,01,01,03,0.016
1200100251,2006,01,01,04,0.015
1200100251,2006,01,01,05,0.01
1200100251,2006,01,01,06,0.006
1200100251,2006,01,01,07,0.003
1200100251,2006,01,01,08,0.006
1200100251,2006,01,01,09,0.012
1200100251,2006,01,01,10,0.018
1200100251,2006,01,01,11,0.021
1200100251,2006,01,01,12,0.022
1200100251,2006,01,01,13,0.022
1200100251,2006,01,01,14,0.031
1200100251,2006,01,01,15,0.031
1200100251,2006,01,01,16,0.025
1200100251,2006,01,01,17,0.014
1200100251,2006,01,01,18,0.01
1200100251,2006,01,01,19,0.005
1200100251,2006,01,01,20,0.002
1200100251,2006,01,01,21,0.003
1200100251,2006,01,01,22,0.013
1200100251,2006,01,01,23,0.01
1200100251,2006,01,02,00,0.011
1200100251,2006,01,02,01,0.01
1200100251,2006,01,02,02,0.009
1200100251,2006,01,02,03,0.009
1200100251,2006,01,02,04,0.009
1200100251,2006,01,02,05,0.01
1200100251,2006,01,02,06,0.011
1200100251,2006,01,02,07,0.009
1200100251,2006,01,02,08,0.011
1200100251,2006,01,02,09,0.014
1200100251,2006,01,02,10,0.019
1200100251,2006,01,02,11,0.024
1200100251,2006,01,02,12,0.022
1200100251,2006,01,02,13,0.027
1200100251,2006,01,02,14,0.026
1200100251,2006,01,02,15,0.024
1200100251,2006,01,02,16,0.025
1200100251,2006,01,02,17,0.025
1200100251,2006,01,02,18,0.025
1200100251,2006,01,02,19,0.023
1200100251,2006,01,02,20,0.024
1200100251,2006,01,02,21,0.023
1200100251,2006,01,02,22,0.023
1200100251,2006,01,02,23,0.024
1200100251,2006,01,03,00,0.023
1200100251,2006,01,03,01,0.022
1200100251,2006,01,03,02,0.021
1200100251,2006,01,03,03,0.021
1200100251,2006,01,03,04,0.025
1200100251,2006,01,03,05,0.028
1200100251,2006,01,03,06,0.027
1200100251,2006,01,03,07,0.026
1200100251,2006,01,03,08,0.025
1200100251,2006,01,03,09,0.028
1200100251,2006,01,03,10,0.033
1200100251,2006,01,03,11,0.036
1200100251,2006,01,03,12,0.037
1200100251,2006,01,03,13,0.037
1200100251,2006,01,03,14,0.039
1200100251,2006,01,03,15,0.037
1200100251,2006,01,03,16,0.041
1200100251,2006,01,03,17,0.035
1200100251,2006,01,03,18,0.028
1200100251,2006,01,03,19,0.031
1200100251,2006,01,03,20,0.026
1200100251,2006,01,03,21,0.016
1200100251,2006,01,03,22,0.012
1200100251,2006,01,03,23,0.012
1200100251,2006,01,04,00,0.026
1200100251,2006,01,04,01,0.016
1200100251,2006,01,04,02,0.01
1200100251,2006,01,04,03,0.004
1200100251,2006,01,04,04,0.002
1200100251,2006,01,04,05,0
1200100251,2006,01,04,06,0
1200100251,2006,01,04,07,0
1200100251,2006,01,04,08,0
1200100251,2006,01,04,09,0.005
1200100251,2006,01,04,10,0.012
1200100251,2006,01,04,11,0.025
1200100251,2006,01,04,12,0.034
1200100251,2006,01,04,13,0.033
1200100251,2006,01,04,14,0.041
1200100251,2006,01,04,15,0.045
1200100251,2006,01,04,16,0.045
1200100251,2006,01,04,17,0.034
1200100251,2006,01,04,18,0.023
1200100251,2006,01,04,19,0.017
1200100251,2006,01,04,20,0.013
1200100251,2006,01,04,21,0.005
1200100251,2006,01,04,22,0.004
1200100251,2006,01,04,23,0.001
1200100251,2006,01,05,00,0.004
1200100251,2006,01,05,01,0.005
1200100251,2006,01,05,02,0.004
1200100251,2006,01,05,03,0.003
1200100251,2006,01,05,04,0.005
1200100251,2006,01,05,05,0.005
1200100251,2006,01,05,06,0.012
1200100251,2006,01,05,07,0.017
1200100251,2006,01,05,08,0.017
1200100251,2006,01,05,09,0.019
1200100251,2006,01,05,10,0.028
1200100251,2006,01,05,11,0.045
1200100251,2006,01,05,12,0.049
1200100251,2006,01,05,13,0.053
1200100251,2006,01,05,14,0.057
1200100251,2006,01,05,15,0.059
1200100251,2006,01,05,16,0.057
1200100251,2006,01,05,17,0.054
1200100251,2006,01,05,18,0.051
1200100251,2006,01,05,19,0.051
1200100251,2006,01,05,20,0.052
1200100251,2006,01,05,21,0.053
1200100251,2006,01,05,22,0.049
1200100251,2006,01,05,23,0.042
1200100251,2006,01,06,00,0.029
1200100251,2006,01,06,01,0.025
1200100251,2006,01,06,02,0.024
1200100251,2006,01,06,03,0.021
1200100251,2006,01,06,04,0.02
1200100251,2006,01,06,05,0.021
1200100251,2006,01,06,06,0.018
1200100251,2006,01,06,07,0.013
1200100251,2006,01,06,08,0.015
1200100251,2006,01,06,09,0.021
1200100251,2006,01,06,10,0.021
1200100251,2006,01,06,11,0.021
1200100251,2006,01,06,12,0.023
1200100251,2006,01,06,13,0.025
1200100251,2006,01,06,14,0.028
1200100251,2006,01,06,15,0.03
1200100251,2006,01,06,16,0.029
1200100251,2006,01,06,17,0.028
1200100251,2006,01,06,18,0.028
1200100251,2006,01,06,19,0.027
1200100251,2006,01,06,20,0.025
1200100251,2006,01,06,21,0.023
1200100251,2006,01,06,22,0.021
1200100251,2006,01,06,23,0.018
1200100251,2006,01,07,00,0.018
1200100251,2006,01,07,01,0.018
1200100251,2006,01,07,02,0.016
1200100251,2006,01,07,03,0.016
1200100251,2006,01,07,04,0.016
1200100251,2006,01,07,05,0.014
1200100251,2006,01,07,06,0.013
1200100251,2006,01,07,07,0.011
1200100251,2006,01,07,08,0.009
1200100251,2006,01,07,09,0.015
1200100251,2006,01,07,10,0.02
1200100251,2006,01,07,11,0.021
1200100251,2006,01,07,12,0.024
1200100251,2006,01,07,13,0.028
1200100251,2006,01,07,14,0.03
1200100251,2006,01,07,15,0.032
1200100251,2006,01,07,16,0.032
1200100251,2006,01,07,17,0.028
1200100251,2006,01,07,18,0.021
1200100251,2006,01,07,19,0.016
1200100251,2006,01,07,20,0.011
1200100251,2006,01,07,21,0.009
1200100251,2006,01,07,22,0.008
1200100251,2006,01,07,23,0.004
1200100251,2006,01,08,00,0.003
1200100251,2006,01,08,01,0.002
1200100251,2006,01,08,02,0.002
1200100251,2006,01,08,03,0.003
1200100251,2006,01,08,04,0.003
1200100251,2006,01,08,05,0.001
1200100251,2006,01,08,06,0
1200100251,2006,01,08,07,0
1200100251,2006,01,08,08,0
1200100251,2006,01,08,09,0.014
1200100251,2006,01,08,10,0.024
1200100251,2006,01,08,11,0.033
1200100251,2006,01,08,12,0.037
1200100251,2006,01,08,13,0.04
1200100251,2006,01,08,14,0.04
1200100251,2006,01,08,15,0.041
1200100251,2006,01,08,16,0.041
1200100251,2006,01,08,17,0.038
1200100251,2006,01,08,18,0.034
1200100251,2006,01,08,19,0.027
1200100251,2006,01,08,20,0.02
1200100251,2006,01,08,21,0.011
1200100251,2006,01,08,22,0.008
1200100251,2006,01,08,23,0.011
1200100251,2006,01,09,00,0.017
1200100251,2006,01,09,01,0.019
1200100251,2006,01,09,02,0.016
1200100251,2006,01,09,03,0.01
1200100251,2006,01,09,04,0.004
1200100251,2006,01,09,05,0.003
1200100251,2006,01,09,06,0
1200100251,2006,01,09,07,0
1200100251,2006,01,09,08,0
1200100251,2006,01,09,09,0.001
1200100251,2006,01,09,10,0.017
1200100251,2006,01,09,11,0.034
1200100251,2006,01,09,12,0.044
1200100251,2006,01,09,13,0.052
1200100251,2006,01,09,14,0.063
1200100251,2006,01,09,15,0.054
1200100251,2006,01,09,16,0.053
1200100251,2006,01,09,17,0.046
1200100251,2006,01,09,18,0.017
1200100251,2006,01,09,19,0.006
1200100251,2006,01,09,20,0.001
1200100251,2006,01,09,21,0
1200100251,2006,01,09,22,0
1200100251,2006,01,09,23,0
1200100251,2006,01,10,00,0
1200100251,2006,01,10,01,0
1200100251,2006,01,10,02,0
1200100251,2006,01,10,03,0
1200100251,2006,01,10,04,0
1200100251,2006,01,10,05,0
1200100251,2006,01,10,06,0
1200100251,2006,01,10,07,0
1200100251,2006,01,10,08,0
1200100251,2006,01,10,09,0.014
1200100251,2006,01,10,10,99
1200100251,2006,01,10,11,0.036
1200100251,2006,01,10,12,0.039
1200100251,2006,01,10,13,0.042
1200100251,2006,01,10,14,0.042
1200100251,2006,01,10,15,0.044
1200100251,2006,01,10,16,0.043
1200100251,2006,01,10,17,0.04
1200100251,2006,01,10,18,0.02
1200100251,2006,01,10,19,0.011
1200100251,2006,01,10,20,0.021
1200100251,2006,01,10,21,0.022
1200100251,2006,01,10,22,0.017
1200100251,2006,01,10,23,0.007
1200100251,2006,01,11,00,0.009
1200100251,2006,01,11,01,0.016
1200100251,2006,01,11,02,0.017
1200100251,2006,01,11,03,99
1200100251,2006,01,11,04,99
1200100251,2006,01,11,05,99
1200100251,2006,01,11,06,99
1200100251,2006,01,11,07,99
1200100251,2006,01,11,08,99
1200100251,2006,01,11,09,99
1200100251,2006,01,11,10,99
1200100251,2006,01,11,11,99
1200100251,2006,01,11,12,99
1200100251,2006,01,11,13,99
1200100251,2006,01,11,14,99
1200100251,2006,01,11,15,99
1200100251,2006,01,11,16,99
1200100251,2006,01,11,17,99
1200100251,2006,01,11,18,99
1200100251,2006,01,11,19,99
1200100251,2006,01,11,20,99
1200100251,2006,01,11,21,99
1200100251,2006,01,11,22,99
1200100251,2006,01,11,23,99
